Location: Atherton
(17.2661°S, 145.4859°E)
Time: 23:55:59
(UTC+10:00)

Vanguard 1 - Pass Details

Date: 25 June 2025
Orbit: 649 x 3822 km, 34.2° (Epoch: 17 July)

Event Time Altitude Azimuth Distance (km) Brightness Sun altitude
Rises 03:58:41 0° 256° (WSW) 2,983 - -38.8°
Reaches altitude 10° 04:01:13 10° 269° (W) 2,049 - -38.2°
Maximum altitude 04:04:57 26° 327° (NNW) 1,357 - -37.4°
Exits shadow 04:08:07 15° 15° (NNE) 2,025 11.9 -36.7°
Drops below altitude 10° 04:09:22 10° 24° (NNE) 2,456 12.5 -36.4°
Sets 04:12:45 0° 36° (NE) 3,734 13.7 -35.6°
